GFSNE_250_spd_000.txt.gz
Wind_Speed
58 55 47 46 50 51 57 64 66 55 51 42 49 54 60 62 63 63 44 34 58 77 78 75 73 72 69 68 65 60 60 60 57 52 47 45 39 34
58 52 50 54 58 60 59 59 60 60 60 50 54 63 70 66 72 72 50 46 50 72 85 84 80 78 76 73 72 68 63 63 62 59 53 50 46 40
58 56 55 58 65 58 61 60 64 63 54 56 60 71 76 75 82 83 62 62 46 66 80 92 90 85 81 79 77 74 70 64 65 62 59 54 50 47
58 57 64 69 63 62 64 60 63 59 59 56 62 77 81 85 87 78 78 77 51 53 62 88 96 93 88 84 83 79 75 70 66 66 65 61 56 53
64 66 67 66 65 63 64 64 62 57 63 62 70 76 88 88 97 92 94 72 49 52 54 69 90 98 94 88 87 86 80 76 70 68 68 67 62 59
66 67 66 68 68 69 70 60 64 67 67 68 72 80 87 94 94 96 94 79 50 47 50 58 70 92 98 94 89 89 87 81 76 69 69 68 67 63
66 68 69 73 71 65 72 72 68 68 70 73 77 87 95 97 96 103 96 69 55 43 46 51 61 77 96 100 95 90 90 86 80 75 67 69 69 67
77 76 73 74 68 69 75 70 71 76 73 80 90 90 99 100 99 88 74 54 48 44 44 53 58 66 86 97 98 93 89 90 85 79 72 65 68 69
75 75 73 63 69 68 67 72 75 78 84 88 87 89 96 101 92 78 67 54 44 43 42 53 56 66 72 88 95 97 93 91 89 84 77 71 65 69
73 70 72 74 73 70 70 77 80 82 83 88 94 94 95 91 76 69 64 54 45 43 41 51 55 66 62 76 95 100 96 92 91 89 82 74 68 66
74 66 64 67 68 75 77 78 82 86 89 93 98 91 79 76 66 66 61 50 44 41 38 42 53 61 62 71 86 97 100 97 92 92 88 79 71 67
71 71 72 73 75 78 79 80 86 88 88 86 77 75 76 75 61 57 52 48 40 38 33 39 49 56 68 66 80 91 96 96 95 90 89 85 77 68
73 72 73 74 71 76 80 84 84 82 76 77 79 80 76 63 53 49 47 44 39 32 31 39 46 55 66 64 71 86 96 95 94 92 87 87 81 71
77 71 71 74 77 76 78 78 73 75 78 81 82 78 66 57 49 43 42 39 35 29 30 39 42 53 66 66 66 80 90 93 92 90 86 86 86 79
75 76 77 77 78 78 75 76 81 83 86 84 73 64 60 53 45 40 35 35 32 29 32 40 41 50 64 67 67 75 85 91 90 93 92 85 88 85
78 77 77 76 78 78 79 84 86 88 86 69 61 53 48 43 37 33 30 32 31 29 33 38 36 45 57 63 65 68 79 88 92 96 96 92 85 87
78 76 77 80 81 82 86 88 88 82 67 60 52 47 44 36 33 30 29 31 30 28 29 32 36 42 53 61 65 68 73 83 91 96 95 93 88 84
75 75 79 83 87 89 91 87 75 69 61 54 45 41 38 33 28 27 29 30 29 28 28 31 34 41 50 58 65 66 69 77 84 94 95 93 90 85
79 84 87 90 92 88 80 68 64 60 56 48 43 39 34 27 24 26 29 31 29 28 28 31 35 37 46 54 64 69 68 75 83 92 94 92 93 89
88 90 91 91 82 70 65 63 57 53 48 42 39 35 31 28 25 26 30 32 28 29 29 27 31 33 42 53 62 68 75 75 80 89 95 93 91 90
93 91 84 68 65 61 59 56 52 48 43 39 35 33 29 26 25 27 30 31 28 28 29 26 28 31 39 48 59 65 75 77 74 77 83 94 92 90
81 68 64 60 57 54 52 48 44 42 40 36 33 30 27 25 26 28 31 31 28 29 27 25 25 29 33 42 53 59 72 76 70 68 78 85 88 87
66 61 55 51 49 47 44 40 37 35 33 30 28 27 26 25 28 30 33 33 31 31 28 25 26 28 32 41 48 54 65 74 73 67 69 80 82 82

GFSNE_250_spd_003.txt.gz
Wind_Speed
44 46 48 48 49 46 40 48 46 43 46 43 44 46 53 47 51 49 50 51 35 33 31 39 61 77 79 78 77 71 67 63 60 60 55 51 46 41
52 53 54 51 48 48 52 51 48 47 44 49 54 53 52 55 59 55 60 61 51 63 41 42 47 70 85 86 84 80 74 70 64 65 62 57 53 47
56 58 57 55 49 53 53 49 47 48 51 54 57 61 59 59 61 65 63 64 72 76 53 48 47 68 89 92 91 89 83 76 73 69 68 64 58 54
61 65 62 61 55 55 48 48 50 53 48 57 61 64 62 62 62 67 68 74 80 78 71 56 48 65 88 98 97 95 91 84 80 74 73 70 64 59
64 66 62 52 56 55 49 50 51 54 53 54 56 57 59 62 64 69 72 81 76 81 80 67 53 54 71 88 102 100 97 93 86 82 76 75 70 64
66 69 71 74 68 52 50 54 57 58 54 54 55 56 63 69 71 74 75 76 82 87 84 66 57 56 60 74 87 104 101 98 92 88 81 77 75 69
69 73 73 67 57 56 57 56 57 53 54 51 57 63 69 72 75 77 81 87 87 85 70 65 59 54 57 65 75 96 103 102 98 92 87 80 77 74
70 69 71 69 68 68 62 59 60 64 62 68 70 72 71 73 77 85 88 89 77 79 75 71 59 51 51 55 71 83 102 101 99 95 91 86 79 78
72 72 73 73 67 66 67 68 68 62 60 67 73 74 71 79 85 90 86 79 78 81 76 67 56 48 50 53 68 76 89 99 98 95 94 91 84 80
71 74 75 70 65 69 69 68 65 68 68 72 75 76 80 81 82 77 76 77 81 83 76 58 51 47 48 51 61 67 80 96 99 98 97 94 89 82
75 77 74 72 78 76 72 72 66 69 69 71 75 79 79 76 76 75 77 80 82 77 63 45 46 45 40 48 58 66 73 91 100 99 98 96 93 87
77 75 75 82 75 72 73 71 75 75 74 75 74 74 78 82 83 82 81 78 68 62 50 43 45 37 41 49 56 65 69 84 97 99 98 95 95 90
79 83 80 79 75 76 74 72 71 72 69 70 74 76 78 78 76 75 69 64 57 56 44 43 40 34 43 49 55 63 68 78 93 98 97 96 94 88
89 87 81 85 81 74 70 67 64 65 68 73 76 77 78 77 73 60 56 52 49 47 44 40 36 33 42 51 54 60 67 73 87 97 98 95 92 86
88 85 84 81 73 67 68 70 73 75 76 77 78 78 75 64 56 50 47 45 45 38 38 35 31 31 40 48 53 60 67 69 80 93 97 95 92 87
87 86 82 75 71 69 76 78 80 82 82 80 76 70 59 53 48 44 42 38 37 33 32 32 30 31 37 45 51 57 66 68 73 86 97 96 92 89
84 77 74 74 78 80 82 84 84 82 79 73 61 54 53 47 41 41 38 35 33 34 28 29 29 30 35 42 49 57 64 68 72 80 92 97 96 91
79 77 78 80 83 85 86 83 79 76 69 61 58 51 46 43 40 36 34 30 30 31 28 29 31 31 36 40 46 54 63 67 67 77 87 98 98 96
81 82 82 86 87 85 79 73 69 63 59 54 53 48 43 40 36 32 28 26 26 29 29 30 32 32 35 40 45 53 59 64 64 72 84 94 98 98
84 84 89 86 80 70 66 64 60 53 50 50 48 45 40 38 34 30 28 26 27 31 32 31 32 34 37 39 44 52 57 64 63 66 80 88 96 96
88 91 81 72 67 64 60 55 51 47 47 45 43 40 36 34 31 29 27 25 28 33 35 32 34 34 34 36 40 50 56 62 65 68 74 86 93 96
89 75 69 65 61 57 53 51 49 44 42 42 41 36 31 28 26 25 25 25 28 35 35 32 33 32 29 31 37 45 56 62 67 69 75 84 92 95
75 67 64 62 59 54 49 45 43 41 40 40 39 36 31 27 23 22 23 24 28 34 35 31 30 29 29 30 33 44 54 62 68 72 74 76 83 90

GFSNE_250_spd_006.txt.gz
Wind_Speed
47 48 52 50 48 47 48 49 43 43 44 40 42 44 43 46 50 52 55 53 50 51 37 34 38 23 35 61 75 73 71 73 68 66 62 55 55 51
51 55 54 51 51 51 53 52 52 50 50 43 44 47 52 46 51 55 60 58 59 54 50 42 31 45 41 49 72 82 85 79 78 72 70 63 60 57
53 58 58 57 54 55 57 58 54 51 59 44 46 48 50 50 52 53 63 66 63 59 53 57 55 44 48 37 53 81 91 89 84 82 76 72 65 63
60 62 61 56 57 58 60 64 58 57 49 50 51 55 56 59 54 57 65 62 62 63 65 64 66 61 49 47 47 55 86 97 94 91 86 77 73 68
62 63 63 59 58 58 58 57 56 56 53 56 58 61 64 62 60 60 62 63 66 69 71 70 70 73 66 59 54 49 70 95 103 100 96 85 80 73
64 65 64 65 65 66 62 59 56 58 59 61 64 66 68 69 64 66 63 67 72 79 73 73 78 78 74 69 56 50 63 84 91 107 105 93 84 79
68 66 67 67 68 64 62 58 65 63 67 63 65 67 67 69 68 67 70 73 76 76 79 83 84 79 79 66 58 56 57 78 90 87 106 100 91 84
68 70 70 67 69 68 64 64 70 68 67 79 66 63 65 65 64 67 70 74 79 84 81 84 82 76 76 73 68 60 55 62 81 78 88 106 98 91
67 72 71 66 69 67 68 73 73 79 83 71 68 66 64 66 66 71 72 80 85 86 85 82 85 81 83 77 72 59 53 56 66 75 79 103 103 98
73 72 70 70 70 69 70 81 87 85 79 78 70 64 64 67 70 72 76 76 80 84 87 84 83 83 79 74 60 49 46 48 60 73 81 94 109 103
76 74 71 73 73 73 85 89 87 83 78 74 67 63 65 67 67 66 71 75 80 85 91 83 82 79 69 58 49 43 41 47 57 69 77 91 107 106
77 78 78 77 80 87 87 85 83 79 73 65 62 63 67 70 73 76 80 82 85 87 84 78 73 57 54 48 46 40 40 47 54 65 75 83 99 100
80 81 83 83 90 92 89 81 77 69 67 67 71 72 74 75 77 80 84 86 85 81 72 62 57 48 43 51 43 38 39 46 52 59 70 78 92 99
81 80 83 90 93 90 85 81 75 73 74 75 76 78 78 80 82 80 76 72 66 59 58 54 52 46 42 43 43 35 40 46 52 57 64 71 86 95
81 85 86 91 87 84 81 79 79 81 83 83 81 81 81 78 74 70 63 61 59 53 48 49 45 40 37 38 41 35 38 47 52 56 61 69 81 93
86 88 93 89 86 81 81 82 83 87 86 82 81 80 75 69 65 59 58 55 52 48 40 40 39 33 32 35 36 33 38 44 50 54 57 66 79 91
88 90 88 84 80 81 81 83 86 87 84 80 75 71 67 64 58 52 53 50 48 44 40 37 36 31 30 31 34 34 39 43 49 54 57 62 77 90
88 83 82 82 83 84 83 85 87 79 78 76 71 64 58 53 50 49 47 44 43 39 36 34 32 30 29 30 32 34 39 44 48 56 58 63 76 89
84 83 83 85 88 86 88 87 79 75 70 65 60 55 52 48 45 43 41 39 38 34 32 30 27 27 27 29 31 33 38 43 46 56 59 65 72 86
83 84 86 89 86 88 87 78 72 67 61 58 55 51 47 42 40 39 38 36 35 31 31 29 26 27 28 27 29 31 37 42 46 55 58 63 70 81
86 90 94 90 85 81 73 68 63 57 52 50 48 43 40 39 36 35 35 33 31 29 29 28 26 28 28 27 28 30 35 39 46 51 54 58 65 76
94 94 88 85 78 70 62 56 53 51 49 46 44 41 37 36 34 31 30 28 27 27 26 26 27 28 29 27 28 30 32 38 43 47 52 58 63 71
96 91 83 77 67 60 54 51 50 48 45 42 39 36 33 33 31 29 25 22 23 24 24 24 28 28 30 29 28 29 32 35 41 46 52 57 62 67

GFSNE_250_spd_009.txt.gz
Wind_Speed
42 44 47 50 49 48 48 46 43 42 41 41 42 48 47 49 45 40 46 48 50 47 49 51 48 43 43 42 39 42 53 67 67 66 64 63 59 55
45 45 45 48 50 49 50 53 48 48 44 40 39 42 43 46 47 48 43 46 48 53 54 54 56 57 53 53 48 45 47 56 69 71 72 70 69 64
47 48 50 51 51 49 50 49 45 48 44 41 39 40 40 42 46 48 53 57 58 60 62 59 61 62 67 63 59 48 54 46 51 70 77 77 76 73
53 51 52 56 56 55 54 54 46 50 51 49 48 48 47 46 53 55 53 57 62 64 67 67 66 72 69 70 70 68 53 54 52 55 72 83 83 80
56 57 58 60 58 59 58 56 54 53 55 48 51 53 55 53 51 59 59 68 68 69 69 68 71 74 72 75 77 75 70 58 59 63 63 77 93 88
59 61 64 62 60 63 63 61 60 60 59 56 64 66 65 65 62 56 57 53 60 68 71 71 75 75 77 79 82 79 69 68 64 60 68 78 85 94
64 65 68 63 65 67 66 65 66 66 64 63 70 71 75 73 65 62 61 61 63 59 58 66 72 76 81 82 86 80 82 72 63 61 69 75 86 82
67 71 68 66 65 69 70 68 67 69 64 73 79 80 75 70 66 63 63 61 60 65 63 69 70 76 80 82 84 85 84 75 64 60 59 70 78 88
71 72 74 68 69 73 71 73 71 70 71 80 83 82 77 74 64 59 57 57 58 65 63 67 70 71 77 80 82 82 75 71 65 58 67 72 79 89
75 72 72 72 75 74 75 74 74 79 81 84 81 78 74 70 66 60 61 62 65 69 70 69 74 76 81 82 83 82 76 67 62 60 65 76 89 89
73 75 74 78 78 74 78 78 77 83 83 84 80 76 71 70 70 70 73 73 74 78 80 75 79 80 81 83 79 75 67 58 56 60 66 75 82 84
74 75 78 77 79 79 81 81 82 85 85 80 76 74 75 76 78 78 79 79 80 80 82 75 76 73 70 68 62 54 46 42 46 54 60 68 72 73
77 80 80 77 77 79 80 83 86 86 80 78 78 80 82 82 83 84 83 78 76 72 69 63 62 57 53 52 56 42 38 39 41 49 54 58 63 67
79 78 79 79 79 78 81 85 85 80 80 82 85 86 86 87 87 83 77 72 70 66 63 60 56 52 49 47 46 39 34 35 41 43 45 48 55 59
78 78 78 75 78 81 85 83 83 83 87 89 88 87 85 85 81 75 69 64 61 56 52 51 50 48 43 41 42 36 33 30 37 38 40 44 50 56
77 80 77 78 82 82 83 84 88 91 92 91 87 84 82 76 71 67 62 58 54 53 50 48 45 40 38 35 37 34 30 33 33 36 38 41 47 53
79 76 78 81 79 82 87 90 94 93 92 88 86 82 75 70 65 61 58 54 51 50 48 44 39 35 34 31 33 30 28 32 30 31 37 40 44 49
78 79 78 79 81 88 91 96 97 90 88 86 79 71 68 64 57 53 50 47 45 44 45 41 35 32 30 27 29 29 27 29 30 31 34 39 41 46
82 83 85 88 85 87 93 94 87 82 79 70 64 59 57 55 49 45 44 41 40 42 41 37 31 30 27 23 25 27 29 29 31 32 36 40 42 45
84 89 96 97 97 97 92 86 81 75 66 60 58 54 50 47 44 41 40 39 39 39 36 32 28 26 24 21 23 27 29 30 31 31 36 38 43 50
82 89 100 97 95 86 80 80 75 64 57 54 52 51 48 45 41 39 36 36 35 35 33 28 24 22 23 22 24 28 28 29 30 32 36 40 43 48
89 98 96 96 88 83 77 73 63 56 51 49 48 49 46 44 39 35 33 33 32 29 28 24 20 20 22 23 25 26 25 26 28 31 33 38 42 48
98 103 97 82 86 77 74 62 53 48 47 46 45 44 45 41 37 33 30 30 29 25 24 21 18 18 21 25 25 24 24 26 27 27 29 35 42 50

GFSNE_250_spd_012.txt.gz
Wind_Speed
37 38 38 40 39 40 41 40 38 42 39 34 36 35 38 34 31 29 31 42 46 44 48 46 51 54 52 49 46 46 44 42 44 50 57 61 58 57
41 41 43 43 46 47 49 42 41 39 35 39 39 38 38 35 38 38 39 32 34 38 43 50 55 55 56 57 55 52 50 51 47 50 52 56 66 65
49 47 47 49 51 52 50 44 45 46 49 51 45 43 41 37 38 46 46 46 45 44 43 50 54 59 60 61 61 61 58 56 57 55 53 53 58 68
52 50 53 53 53 55 52 49 47 49 53 50 49 50 47 43 42 46 50 52 56 58 55 59 59 65 66 66 67 65 65 66 61 61 58 57 58 61
58 56 58 59 61 61 58 53 47 53 58 57 56 53 54 50 49 53 56 59 58 56 53 53 56 60 66 70 72 71 71 71 70 68 64 67 71 65
61 62 65 66 66 67 64 61 57 58 60 61 62 61 58 56 56 58 64 61 57 54 54 57 58 56 60 64 70 72 74 74 75 76 75 75 75 70
63 71 71 69 71 72 69 64 66 65 65 68 65 67 63 64 62 64 61 60 61 56 48 52 53 57 62 65 71 75 79 80 84 83 83 84 85 78
69 74 73 73 73 77 72 73 73 71 71 70 71 70 69 70 70 65 60 58 57 59 55 56 53 55 56 59 64 74 80 82 85 89 88 87 86 81
78 76 76 74 74 78 76 76 72 74 73 73 74 74 72 73 69 65 63 61 63 66 62 63 66 65 66 69 74 72 70 73 79 83 84 84 86 84
80 77 78 80 79 79 75 75 77 77 76 73 74 75 73 69 67 66 68 70 72 74 71 67 74 74 76 80 82 80 80 80 80 79 78 76 74 71
80 81 81 82 78 77 74 78 79 78 74 77 79 77 74 73 75 78 80 77 76 79 76 68 73 75 73 71 73 73 76 75 71 71 72 73 75 76
83 83 81 81 81 75 77 77 77 76 80 81 79 79 81 81 85 89 85 80 77 75 75 69 65 62 61 63 65 63 59 60 59 63 64 64 67 72
82 80 83 83 79 79 76 77 80 80 83 83 81 85 86 88 91 88 81 76 74 70 66 61 58 56 54 53 60 59 53 51 50 53 54 56 58 66
81 81 80 75 77 79 78 81 81 87 91 89 88 91 90 89 86 81 77 70 63 59 57 54 51 49 47 46 46 54 48 41 42 47 48 50 56 61
77 76 70 74 79 79 81 85 87 90 96 95 93 90 86 84 82 77 67 61 58 52 50 48 46 46 45 43 43 46 41 37 36 37 44 48 50 51
74 73 73 74 75 81 85 87 92 98 102 96 91 87 81 77 70 64 60 56 54 50 45 43 41 41 42 39 40 41 38 36 32 32 39 40 41 44
68 71 71 75 79 81 87 91 99 104 94 86 82 78 77 71 65 59 55 51 48 47 44 40 37 37 37 37 37 35 35 33 29 30 33 36 36 39
66 72 71 76 84 87 88 92 103 99 85 82 80 77 71 66 62 57 53 50 45 42 41 39 36 36 35 32 30 34 30 30 27 27 27 33 32 36
71 73 74 83 82 86 87 96 108 93 85 80 77 70 65 61 58 54 48 45 41 40 37 36 35 35 33 28 19 31 27 25 26 24 23 26 27 32
74 74 80 82 86 89 92 99 108 87 79 75 70 65 58 55 53 51 46 44 40 37 35 33 33 32 29 24 19 24 23 24 23 21 19 22 26 29
76 76 78 87 90 92 96 101 93 84 79 72 64 57 54 50 50 49 45 42 40 36 34 32 30 29 25 19 18 20 21 21 21 19 19 22 25 29
77 77 85 90 94 91 96 101 97 83 76 69 60 55 52 51 49 48 46 41 37 33 32 30 27 25 22 17 16 18 20 20 18 18 18 22 24 29
75 78 86 91 93 98 103 101 89 79 73 63 56 52 51 50 49 47 45 40 36 31 30 28 22 22 18 14 15 16 18 20 19 19 19 21 24 29

GFSNE_250_spd_015.txt.gz
Wind_Speed
36 38 39 35 38 42 43 47 46 47 44 41 38 44 41 41 38 36 34 37 35 33 36 37 42 49 49 51 49 48 51 49 49 47 44 43 50 57
41 40 40 38 43 48 49 50 50 51 52 47 45 48 50 52 47 43 40 35 39 41 36 34 38 42 45 48 51 50 56 57 56 56 53 51 47 49
42 42 43 38 47 56 57 56 55 55 52 48 49 54 53 51 54 53 51 47 45 44 44 40 45 46 47 54 57 57 57 58 61 59 59 54 56 51
40 42 48 46 54 65 64 63 61 60 60 57 55 54 52 55 54 53 56 54 53 52 52 51 50 50 54 53 59 62 62 64 63 64 61 64 61 59
44 50 57 59 66 70 70 69 67 65 65 66 61 60 62 61 59 59 54 52 57 57 58 59 60 53 51 52 54 60 68 73 73 72 70 67 71 69
47 63 72 69 76 79 76 72 72 71 67 65 64 63 67 65 58 54 56 61 63 62 57 55 56 57 53 49 50 55 62 71 74 78 80 79 75 76
51 69 70 74 82 86 84 78 72 70 69 66 67 69 68 60 59 62 66 65 63 60 58 57 55 54 56 57 56 54 56 61 66 72 77 80 84 81
50 56 78 83 84 88 85 80 75 76 76 73 74 69 69 66 65 68 66 65 69 70 65 65 63 64 64 65 65 64 63 59 63 65 71 77 80 85
66 76 79 85 87 88 86 80 81 81 76 78 76 71 73 75 77 77 75 69 67 70 69 70 76 76 75 72 73 73 73 71 70 71 70 71 74 82
77 78 85 81 87 87 82 83 81 80 76 75 76 77 77 83 84 84 81 76 74 77 78 75 78 79 78 75 74 74 75 74 75 76 74 75 75 78
77 79 74 81 84 81 83 86 80 78 78 80 81 82 88 93 92 87 82 77 75 77 77 70 70 69 71 71 70 70 70 70 73 76 77 80 84 84
75 73 73 78 81 84 82 81 75 76 78 82 86 91 91 97 99 90 85 82 76 71 71 65 59 54 54 60 62 61 62 63 63 68 72 75 77 79
70 71 74 82 87 81 82 76 78 79 81 87 92 94 96 102 97 90 84 79 74 66 57 55 54 50 46 48 59 58 56 53 52 56 59 64 68 72
67 68 81 80 78 82 76 76 76 76 83 88 98 100 101 105 97 88 81 73 64 56 54 51 51 48 47 45 44 54 53 52 49 48 50 54 59 63
68 74 75 76 77 83 79 79 74 81 86 92 101 102 109 101 92 85 74 64 56 51 50 50 48 45 43 42 41 41 44 47 44 45 47 50 54 56
75 78 75 78 81 82 74 79 79 86 89 94 100 106 107 97 87 75 64 58 55 51 45 45 45 43 40 37 37 39 39 43 42 39 40 44 49 53
83 78 75 79 82 75 76 79 82 88 87 93 102 110 107 96 83 70 62 59 54 50 46 40 39 38 36 35 36 36 40 42 39 35 31 37 45 40
79 70 74 78 72 76 77 79 85 83 89 98 104 105 106 93 79 67 63 59 54 48 46 43 37 34 34 34 30 38 41 38 34 25 28 36 31 33
83 79 71 73 74 78 79 80 79 84 91 93 106 104 103 90 76 67 62 58 54 47 42 41 38 36 38 36 25 23 38 32 20 21 27 28 27 29
65 67 73 74 76 75 77 78 84 90 96 100 104 106 101 88 76 67 62 59 53 48 42 38 35 35 37 37 34 23 31 27 21 20 20 22 24 25
67 68 70 71 74 79 82 81 87 93 98 98 104 102 100 89 76 66 62 57 52 48 42 39 34 34 35 33 31 27 23 20 19 15 16 19 21 23
68 74 75 78 84 85 78 83 91 96 99 94 100 100 94 83 74 66 61 57 51 48 42 39 34 33 34 32 28 24 21 16 15 13 13 14 15 18
75 81 81 85 85 79 80 85 89 93 98 96 96 95 94 83 74 66 60 56 53 48 41 36 32 31 31 29 26 21 19 14 13 12 11 12 12 15

GFSNE_250_spd_021.txt.gz
Wind_Speed
35 37 36 27 27 32 35 39 47 47 55 58 56 54 58 64 55 56 53 47 43 37 37 38 36 36 40 40 43 50 50 51 47 55 54 54 52 49
36 38 38 36 37 36 39 42 46 46 52 59 58 56 62 66 62 67 59 51 53 53 50 49 49 50 50 44 46 48 54 55 53 53 56 60 60 57
39 39 40 43 43 47 43 42 49 49 57 60 57 57 63 69 73 68 59 64 60 58 57 56 56 60 59 55 51 51 53 55 59 62 60 60 67 67
42 42 44 45 47 50 51 53 52 53 57 59 56 58 61 72 77 67 63 63 66 66 59 60 65 72 69 61 48 50 56 58 61 63 64 67 69 67
47 48 50 52 54 56 58 62 57 54 60 51 57 60 67 71 76 74 64 72 68 69 69 77 80 83 77 64 50 48 59 65 63 66 70 71 71 74
50 52 53 55 58 59 59 60 60 58 56 50 55 58 68 73 74 70 70 74 76 75 78 87 90 85 76 65 56 50 51 62 69 66 68 70 73 77
53 55 57 59 61 64 64 58 62 63 53 52 57 61 72 78 74 69 76 75 83 89 87 91 97 88 73 60 55 53 54 56 63 73 74 72 73 73
58 57 60 62 64 67 67 61 60 55 49 49 59 65 75 78 80 75 79 84 88 91 96 103 103 90 74 59 51 50 53 57 61 66 71 77 75 75
62 63 62 65 67 68 58 55 51 57 55 61 62 70 79 84 84 79 83 86 94 97 101 109 106 95 80 66 55 48 45 50 56 64 69 72 77 80
66 69 71 66 66 52 47 50 56 53 59 60 65 73 83 86 70 77 89 99 96 102 108 111 108 100 86 70 59 52 48 48 49 52 61 68 72 76
71 70 71 63 46 46 53 55 57 59 61 62 67 78 85 79 80 93 101 101 103 109 110 115 111 101 87 73 63 55 50 48 47 47 50 55 62 70
69 65 49 41 42 51 50 63 64 62 65 66 70 80 85 94 96 96 101 102 113 106 111 109 109 100 87 75 66 56 49 47 47 46 45 50 53 57
45 36 33 36 48 51 62 69 66 65 71 74 76 86 87 92 94 100 103 109 109 105 110 110 107 101 88 73 66 57 49 46 43 40 42 42 46 50
30 34 37 44 53 58 71 69 73 71 78 79 82 83 86 91 95 109 112 110 107 104 107 109 107 100 88 73 65 57 51 43 41 38 38 39 40 42
30 37 43 46 46 61 72 75 81 75 82 82 85 87 88 94 101 104 107 108 103 105 104 104 107 100 85 72 64 56 53 48 40 37 39 39 38 38
35 38 45 52 66 75 69 75 75 77 80 88 90 88 93 96 102 113 105 103 100 96 98 107 106 98 85 71 62 56 52 49 47 42 39 38 35 36
25 40 39 52 74 75 80 78 81 81 89 91 88 91 102 105 100 98 95 95 98 97 97 105 106 99 89 73 61 55 52 50 48 46 42 35 28 29
28 42 53 52 62 71 73 70 75 85 90 92 94 98 99 99 103 92 92 93 94 93 100 102 105 99 91 77 65 54 49 47 44 42 36 37 28 21
34 44 65 76 89 78 72 67 74 89 94 93 91 98 105 106 93 88 92 91 91 93 98 100 105 96 93 83 68 60 51 46 46 38 33 31 27 19
49 55 59 66 71 74 75 75 82 87 87 86 95 100 105 97 89 91 88 87 91 88 92 97 101 96 97 85 71 61 51 43 45 41 32 25 21 19
49 62 64 67 66 68 74 77 87 92 89 94 99 101 87 84 87 92 87 88 87 88 92 94 98 98 97 83 71 62 51 42 37 38 30 22 18 16
61 66 66 67 70 78 79 84 88 86 88 94 90 74 84 84 84 87 82 86 86 87 92 93 94 98 96 84 72 64 53 46 34 32 26 21 17 17
75 73 74 72 73 84 83 86 82 87 87 82 76 73 77 82 84 82 84 84 86 88 90 91 94 97 94 86 74 63 54 45 40 30 21 21 17 17

GFSNE_250_spd_024.txt.gz
Wind_Speed
28 28 31 33 35 35 36 40 43 48 37 45 41 41 39 43 50 62 63 61 56 55 49 46 41 43 49 53 56 51 46 44 46 53 56 51 55 59
34 33 35 38 39 39 39 42 46 48 43 45 45 43 43 46 55 66 67 56 53 57 52 51 50 53 58 67 60 52 46 46 49 52 57 60 60 59
36 38 39 41 44 46 45 46 50 54 47 43 45 45 45 48 51 69 64 58 50 52 58 59 56 60 70 74 75 62 50 45 47 55 59 62 65 67
38 39 43 45 48 49 49 51 54 55 45 36 42 45 45 50 53 67 66 61 56 65 68 62 65 74 79 82 83 63 47 46 48 54 63 66 69 69
42 43 47 50 51 52 52 53 55 47 39 37 41 51 47 52 54 65 71 65 66 74 74 69 71 82 86 91 86 69 45 39 48 54 61 71 74 74
47 47 50 52 54 56 57 56 56 41 41 46 44 52 53 59 57 65 69 66 72 77 76 77 78 83 89 86 86 71 51 37 36 51 61 69 78 80
51 53 54 55 56 56 59 59 52 34 39 43 51 57 59 63 61 68 75 69 74 81 81 88 85 89 89 92 87 72 54 42 36 39 50 64 71 81
55 56 57 56 56 58 58 58 43 34 38 48 53 57 63 64 68 71 71 78 83 85 92 93 94 95 91 95 88 78 60 48 41 38 39 49 64 72
61 60 59 58 58 55 55 49 36 37 40 49 63 61 64 71 68 73 78 79 88 92 97 100 103 104 95 97 93 83 67 52 47 42 41 42 49 61
67 67 66 64 56 50 39 34 33 41 39 50 60 65 66 69 69 77 83 82 89 96 104 98 99 99 98 99 97 89 72 56 49 44 41 40 43 48
65 65 64 60 51 27 34 33 38 42 39 45 59 64 66 68 76 78 84 85 97 99 105 102 95 99 98 101 99 93 78 60 51 45 41 38 39 44
58 55 45 38 29 26 34 37 41 46 44 51 57 64 72 72 76 79 84 88 96 106 102 110 102 96 97 105 103 98 84 66 53 45 38 34 34 36
48 42 30 19 20 27 38 38 37 42 52 54 58 63 71 74 77 80 85 90 97 103 100 99 103 100 99 102 102 98 89 72 56 47 41 35 29 32
36 27 24 20 20 24 29 39 42 46 47 55 57 53 69 72 77 82 85 95 99 99 96 98 99 99 98 98 100 98 92 75 61 48 41 36 35 32
22 23 22 29 36 40 37 42 40 45 48 50 57 61 76 76 80 85 90 91 94 94 95 90 98 99 96 94 99 95 93 81 67 56 44 35 32 33
23 15 19 26 31 31 31 37 41 49 50 53 60 65 74 75 82 85 87 88 94 84 95 90 95 95 94 93 98 96 94 87 71 59 51 44 38 32
22 20 26 31 35 35 36 42 46 50 51 53 59 67 69 75 78 81 87 87 83 90 84 88 99 93 93 90 96 96 95 88 73 58 50 48 41 34
26 29 32 32 36 34 44 50 50 57 56 55 64 69 69 72 77 81 82 86 84 88 90 91 99 95 100 93 91 94 94 90 75 61 51 46 41 33
35 36 35 27 62 57 56 58 57 58 63 66 71 75 71 77 82 82 82 83 78 83 82 93 109 103 98 97 95 92 91 88 77 63 53 46 43 35
41 34 39 43 60 56 54 59 62 63 66 71 74 71 73 77 81 81 83 80 84 90 89 104 97 99 101 98 94 91 88 87 78 65 54 49 39 32
48 44 58 61 61 61 65 69 74 74 71 67 64 65 69 74 80 83 79 82 81 85 88 97 98 108 103 100 102 93 88 84 78 63 53 48 40 31
53 64 65 64 66 70 76 77 76 74 69 72 72 72 74 76 71 75 69 75 86 85 96 97 104 103 99 103 100 95 88 82 78 61 53 46 37 33
91 63 62 69 63 59 64 68 69 76 76 74 71 75 79 75 73 68 75 83 86 86 94 91 92 97 98 98 99 97 86 82 79 64 51 44 35 30

GFSNE_250_spd_027.txt.gz
Wind_Speed
25 27 28 29 31 34 37 36 38 41 41 36 29 28 42 41 46 53 53 53 51 48 50 49 51 51 54 55 69 68 63 66 56 47 48 57 57 65
27 30 32 31 32 34 37 38 38 41 38 32 27 29 38 42 47 51 57 53 54 59 63 58 57 51 54 65 78 78 73 68 60 51 48 57 64 63
31 33 36 37 38 37 38 40 40 41 41 30 26 31 45 41 52 52 54 50 58 62 69 65 69 62 72 80 85 81 78 74 63 50 47 54 64 70
36 38 39 41 43 43 41 42 42 44 42 28 24 30 43 47 53 54 55 51 57 62 73 78 84 67 71 80 88 86 95 77 69 48 43 48 60 70
38 40 43 45 45 46 47 46 46 45 40 25 25 29 41 51 51 56 57 54 54 62 70 81 86 73 82 89 93 99 94 82 70 50 38 41 50 63
43 46 48 50 50 51 51 52 51 50 40 25 29 32 40 50 50 55 59 63 58 65 70 81 79 79 80 87 92 96 92 85 76 54 36 35 42 53
50 52 53 54 56 56 57 57 56 53 42 23 27 28 38 44 52 55 59 63 60 69 77 78 78 77 82 88 92 93 92 91 88 65 45 34 36 44
58 58 59 59 59 58 59 57 56 51 36 26 29 31 34 44 51 53 60 60 64 73 76 79 77 78 79 92 97 103 95 94 86 72 53 44 36 38
58 59 60 59 61 57 57 54 50 41 31 30 32 32 36 43 51 54 58 63 68 73 81 78 76 80 84 94 102 106 101 111 94 87 62 47 39 33
52 52 53 52 54 49 45 42 34 29 28 30 37 40 38 39 53 58 61 64 68 75 76 78 71 79 85 98 101 98 113 107 104 93 72 55 41 36
52 52 51 47 43 41 34 29 22 23 27 34 40 40 37 46 52 58 58 63 69 73 76 81 73 81 86 95 99 105 112 113 109 95 82 59 46 36
48 48 47 45 35 26 28 20 22 27 23 34 41 50 45 47 49 58 56 60 64 74 80 74 76 76 84 91 94 101 113 114 105 99 93 69 48 40
53 51 43 45 30 26 13 13 20 28 36 40 45 49 47 50 51 57 59 51 63 72 73 73 70 78 78 79 95 109 106 116 108 108 95 74 56 43
54 42 33 32 28 13 16 15 26 32 40 39 42 47 50 48 57 58 59 55 61 67 68 79 76 76 78 89 93 98 107 112 113 113 95 80 57 48
53 32 26 19 17 12 20 27 29 29 24 30 38 48 53 51 51 58 61 65 65 71 79 76 78 71 77 85 90 101 111 115 107 106 98 85 64 52
53 44 24 22 20 12 16 28 35 30 33 40 53 59 63 60 58 58 66 64 68 69 72 76 77 71 79 90 95 102 107 107 103 100 97 87 66 55
56 46 32 32 30 25 34 30 34 28 32 43 56 62 68 62 68 70 66 67 68 67 73 78 76 72 79 83 92 104 101 109 100 95 95 87 72 57
55 53 37 37 31 25 26 27 36 37 45 54 55 65 68 66 68 68 69 70 68 71 70 73 73 81 81 85 97 103 103 107 97 95 94 84 74 59
57 48 44 44 34 32 29 33 40 52 55 60 64 72 69 66 70 73 74 69 69 74 73 74 75 74 82 88 89 100 108 108 92 93 91 80 75 60
59 40 43 49 44 36 37 32 45 59 66 56 64 70 73 74 75 77 75 71 71 75 68 70 75 77 80 85 98 103 101 101 93 90 85 85 74 60
60 50 42 49 55 50 48 59 62 67 71 67 69 73 78 76 66 70 74 71 73 73 70 68 79 83 84 90 99 105 100 92 94 89 88 73 69 59
61 51 50 57 51 47 62 75 73 76 73 70 74 70 67 66 68 71 71 66 70 71 67 73 82 80 82 90 96 100 93 92 93 89 82 73 66 54
57 54 54 57 49 58 80 72 86 74 64 63 65 70 70 71 71 70 60 65 69 70 73 78 75 77 83 90 97 87 93 95 90 88 79 68 63 55

GFSNE_250_spd_030.txt.gz
Wind_Speed
21 23 25 24 26 27 28 30 32 33 36 38 24 14 20 28 32 35 42 48 43 43 56 60 60 58 60 64 68 67 69 73 66 62 59 48 45 54
25 25 27 28 29 29 29 31 32 35 34 40 33 15 20 24 32 35 38 43 48 51 53 60 59 61 62 66 65 66 76 83 82 81 71 54 39 42
29 30 33 32 36 36 37 35 36 35 35 37 37 22 23 23 30 34 37 39 40 49 55 55 62 55 59 64 71 73 75 85 86 87 85 67 45 33
33 35 37 38 39 41 42 43 42 41 39 36 37 31 27 27 24 30 39 41 41 47 54 58 59 56 58 64 70 73 79 87 86 91 93 87 58 40
41 44 45 47 49 50 51 50 49 48 44 42 37 30 28 27 26 29 33 43 45 44 46 53 59 64 65 64 68 69 82 81 91 93 97 95 71 47
47 50 51 53 55 55 54 54 53 50 47 41 35 30 28 29 30 32 39 42 44 47 48 52 56 68 69 63 66 76 82 92 100 99 102 98 79 56
53 56 56 56 55 55 53 47 45 45 42 36 31 24 25 23 25 32 34 37 45 50 50 50 49 64 64 67 69 71 78 90 93 98 103 98 85 70
50 50 49 51 51 48 50 48 43 38 34 30 28 20 21 26 28 28 36 37 45 48 50 51 49 60 63 67 64 73 78 86 95 99 103 98 90 76
37 39 42 46 47 47 44 42 40 31 28 25 18 21 25 26 28 30 36 45 48 52 56 57 51 60 60 70 68 73 83 85 94 100 105 97 96 86
41 41 46 48 47 46 38 37 35 33 19 16 18 19 23 27 34 29 36 45 51 53 55 59 56 60 61 71 72 75 83 87 96 100 106 98 104 85
46 49 50 51 53 41 31 29 26 19 13 18 25 32 34 35 38 39 39 42 51 55 58 60 62 63 65 72 72 79 84 89 91 102 103 100 101 91
44 46 48 50 51 43 30 21 19 16 20 24 26 31 35 34 38 42 47 47 53 62 64 62 65 64 65 73 70 76 80 90 89 97 98 97 100 100
46 48 48 45 45 40 29 24 17 14 21 26 29 27 21 30 38 48 56 56 54 62 66 62 64 62 63 71 71 78 79 90 93 96 96 96 103 106
47 47 48 45 39 39 35 33 19 22 26 23 23 23 25 28 37 46 58 63 64 63 66 65 63 63 66 72 73 75 80 89 92 99 97 98 100 104
55 54 50 48 44 42 37 41 26 29 27 28 29 32 31 26 38 49 60 69 68 66 67 70 64 65 68 73 73 74 83 89 87 97 96 99 96 100
56 55 55 54 43 42 41 43 42 29 29 35 35 39 37 31 41 47 64 67 68 73 71 69 69 66 70 74 71 75 81 83 85 95 98 102 98 96
59 59 59 57 56 50 44 38 42 43 32 32 32 34 39 43 44 48 58 68 75 74 76 74 74 70 71 71 71 72 80 80 88 95 97 101 97 94
69 69 63 63 60 56 49 43 46 52 44 34 40 39 49 49 48 49 56 66 69 73 70 72 76 72 70 69 70 70 79 80 87 94 94 96 94 90
67 68 69 68 62 60 56 48 49 57 44 35 50 52 56 49 47 69 76 76 70 73 68 71 73 74 72 69 68 70 83 83 86 93 94 93 87 88
72 70 67 62 58 54 61 53 51 57 51 48 46 53 64 53 65 74 75 80 78 75 69 71 72 74 69 71 68 74 82 81 85 91 93 92 89 89
73 73 74 65 63 62 61 50 47 62 53 48 40 52 71 71 67 75 76 79 80 72 68 71 73 71 71 71 71 71 78 80 84 88 92 92 89 87
74 75 72 72 74 69 54 46 48 58 63 56 52 61 80 82 83 75 70 64 71 71 69 72 72 72 72 72 71 73 77 80 86 85 87 86 86 84
81 77 72 79 76 74 57 46 46 53 42 57 65 80 72 66 68 77 72 67 68 66 68 68 65 68 70 73 71 71 77 83 83 81 82 82 81 81

GFSNE_250_spd_033.txt.gz
Wind_Speed
19 21 24 26 27 29 28 28 27 29 28 27 27 23 23 25 22 17 19 19 27 29 33 34 36 39 49 47 48 52 55 62 67 74 77 76 71 71
23 24 27 31 33 34 36 39 40 39 38 35 33 33 27 26 28 29 25 26 29 31 38 40 39 39 43 53 54 54 57 68 67 77 81 85 79 82
27 30 32 33 36 41 42 43 43 44 44 43 37 35 34 31 30 32 30 29 32 34 34 42 44 42 44 47 57 56 60 65 72 79 84 87 84 80
32 35 38 42 45 47 48 47 44 44 43 42 42 37 32 31 32 30 32 30 30 32 35 42 42 45 47 48 52 56 59 63 71 80 82 91 89 82
38 41 44 46 46 43 42 41 40 41 39 37 35 35 29 31 28 27 20 25 28 31 34 39 43 45 48 51 51 55 61 60 69 77 85 91 94 91
44 47 44 39 37 37 41 41 40 38 37 35 33 33 30 28 23 18 21 19 23 31 35 41 47 52 53 53 55 61 64 66 74 79 88 91 96 100
47 41 35 33 33 38 40 41 39 35 30 35 30 27 23 25 21 17 23 23 30 34 43 45 48 53 55 55 56 60 65 71 74 78 85 88 96 100
38 33 32 35 36 40 45 48 34 27 30 27 25 20 13 9 12 12 18 17 24 30 40 45 50 51 55 57 56 59 64 70 71 79 85 85 91 99
31 33 36 39 43 44 45 47 35 31 25 20 17 10 9 12 11 12 18 20 22 29 39 43 50 50 56 59 63 61 62 69 72 77 83 84 94 96
30 30 32 36 41 45 46 46 39 30 19 9 12 12 14 16 18 21 17 17 24 33 38 47 51 54 56 61 64 63 61 70 72 74 81 84 92 100
31 31 34 39 40 41 45 42 41 31 27 26 23 20 18 22 27 23 22 26 29 37 42 48 56 62 61 64 66 66 65 71 72 74 80 82 91 97
33 33 37 41 41 41 37 41 45 42 30 31 31 28 31 29 27 28 31 35 34 41 50 52 57 60 64 67 65 69 69 72 72 74 78 85 90 93
35 37 40 42 43 42 41 39 40 40 36 35 37 36 36 38 36 34 38 41 38 40 52 55 60 65 66 68 63 68 70 72 75 73 77 83 88 96
39 39 42 43 46 47 47 46 43 40 41 35 34 43 44 43 40 41 47 45 41 51 51 51 58 63 61 66 63 68 69 71 74 74 76 81 85 91
43 44 47 49 52 55 55 55 51 48 43 36 36 44 51 48 46 39 41 43 46 57 58 58 54 69 68 66 69 73 70 72 76 75 78 77 85 89
46 47 50 54 55 56 56 55 54 52 43 36 41 47 48 53 50 42 42 43 48 55 58 58 59 64 69 70 70 73 74 74 76 77 79 80 82 89
51 53 55 57 57 58 55 52 51 52 39 35 40 40 47 51 48 38 38 46 50 53 50 57 75 71 69 74 76 78 74 76 76 77 80 82 83 88
52 53 55 58 59 60 56 55 57 58 51 44 47 48 45 48 53 54 51 55 59 58 51 56 80 77 78 79 86 82 79 72 74 77 78 82 84 88
52 54 60 60 60 60 59 63 62 59 54 52 52 50 47 47 52 47 50 55 57 65 64 73 70 72 72 67 76 79 78 73 72 75 79 78 83 88
58 63 63 64 61 61 65 69 69 63 57 52 52 51 47 44 48 45 38 53 51 75 73 64 67 71 68 65 68 72 73 72 70 72 77 78 81 84
67 70 70 70 70 71 72 72 69 64 59 55 43 47 48 38 41 43 37 39 85 79 82 78 71 67 65 74 68 67 69 70 69 70 74 77 81 83
74 74 75 74 75 77 77 74 74 71 66 58 53 49 48 42 44 40 67 86 84 74 96 91 65 64 66 71 64 67 67 71 72 68 73 77 80 81
81 79 81 82 82 82 83 76 74 70 66 54 52 48 42 40 41 45 76 83 83 90 95 79 73 71 64 63 64 66 66 69 70 70 76 79 79 82

GFSNE_250_spd_036.txt.gz
Wind_Speed
18 20 24 29 31 34 36 37 38 38 37 34 35 33 30 29 30 26 26 31 32 32 31 30 34 31 35 38 40 45 46 51 54 58 62 69 74 80
18 22 27 32 37 41 43 44 41 36 35 34 33 34 34 33 32 29 29 32 33 34 27 24 30 34 38 39 41 46 50 52 56 60 65 71 75 81
23 28 32 36 41 42 37 33 34 36 36 34 32 30 30 29 29 31 30 31 32 22 18 19 28 31 39 40 47 49 51 53 57 60 66 68 74 80
29 33 38 42 39 31 28 31 34 37 38 33 28 27 29 29 28 30 30 28 19 17 15 18 29 33 38 41 46 50 56 57 59 64 66 69 73 80
33 39 42 38 29 29 31 32 33 34 33 31 31 31 31 25 24 26 25 21 15 18 17 25 28 31 34 40 46 50 54 59 60 64 64 68 74 79
36 39 38 29 30 30 31 33 33 33 29 26 27 30 27 27 20 16 11 7 14 17 22 23 29 31 37 44 48 52 54 55 60 65 67 70 71 77
39 41 27 25 24 31 35 41 38 35 34 30 31 27 28 21 13 6 2 4 6 18 19 22 20 31 37 41 47 54 56 54 59 63 68 71 72 77
39 33 26 25 25 29 33 36 41 40 40 31 35 26 23 15 7 7 12 15 19 19 18 22 29 37 38 44 46 53 53 55 59 64 67 73 75 76
39 30 28 23 25 30 33 34 32 35 33 34 37 36 22 15 17 14 16 19 27 27 28 31 33 42 49 53 50 51 54 59 64 62 65 73 78 79
35 30 29 29 30 33 35 35 33 33 34 32 33 36 36 29 24 27 28 29 33 32 35 40 41 46 51 56 58 56 57 58 63 68 68 72 78 80
34 30 29 31 31 34 36 39 41 39 41 39 32 33 35 39 36 32 32 33 39 40 42 39 47 47 48 58 59 61 61 62 64 66 70 74 78 78
35 31 31 34 34 35 36 38 42 46 47 45 38 33 38 40 39 39 37 38 37 41 45 44 47 50 53 59 60 63 63 62 67 68 73 80 81 80
35 31 33 35 37 38 40 43 48 49 48 46 41 42 38 39 39 40 42 40 38 40 43 43 44 49 56 58 61 59 65 68 65 73 75 85 85 78
33 35 38 36 38 42 43 47 50 50 47 42 41 43 37 36 40 42 42 43 46 47 43 44 45 48 62 56 52 63 68 69 74 83 82 86 81 79
35 38 39 38 40 44 46 49 50 49 46 43 44 46 42 38 38 43 45 50 50 46 45 48 44 53 58 55 45 61 68 72 73 76 78 77 77 75
37 39 39 41 42 43 44 48 50 51 50 46 49 51 53 47 42 44 49 58 56 43 50 58 50 51 58 60 51 56 66 73 71 72 72 75 74 73
41 43 44 45 44 44 45 47 51 53 54 52 52 58 56 47 46 49 46 49 57 58 51 51 52 57 59 57 49 56 71 76 69 68 71 71 75 74
45 46 47 46 46 47 49 51 55 59 58 58 60 63 61 59 51 53 55 52 53 54 37 35 40 58 53 59 55 63 73 69 67 70 71 69 70 72
49 51 50 50 51 52 55 58 61 63 65 63 65 65 67 61 55 51 50 53 50 43 49 48 43 44 62 53 72 82 83 72 66 68 67 66 68 68
55 54 55 56 57 59 59 63 66 68 68 70 69 69 70 62 60 53 58 56 49 42 39 36 27 45 58 63 78 78 83 81 76 64 66 66 70 68
58 60 63 62 64 66 68 71 70 72 73 75 73 74 66 68 63 52 57 55 46 48 47 47 70 77 69 89 92 84 88 90 79 64 66 68 67 72
64 66 68 68 70 73 76 77 77 77 78 80 81 76 75 71 60 53 56 53 51 46 46 43 42 54 62 78 91 92 86 72 67 63 66 71 72 67
71 73 75 75 79 80 81 81 82 83 85 86 83 77 71 69 59 49 57 50 54 53 57 50 42 56 63 83 90 87 76 72 69 66 71 69 69 68

GFSNE_250_spd_042.txt.gz
Wind_Speed
20 23 25 29 36 28 26 28 31 34 36 35 33 27 19 17 19 21 20 22 23 24 25 24 15 12 10 16 21 23 27 30 34 38 40 46 54 59
21 24 26 30 36 27 26 25 29 31 35 39 38 34 32 22 16 16 18 18 21 20 20 14 14 14 7 12 17 19 25 28 36 39 40 49 54 59
24 25 26 29 34 27 24 26 28 30 32 38 41 42 36 35 24 17 15 16 16 16 12 10 19 11 8 10 13 18 25 28 33 37 44 51 54 55
25 26 27 28 33 28 24 27 28 28 31 38 39 40 40 34 31 28 22 14 11 8 4 13 11 8 9 10 11 16 20 28 35 44 47 50 56 58
24 26 26 27 32 30 26 26 29 28 30 37 40 38 37 36 27 24 23 17 12 5 4 11 14 15 15 15 19 23 31 26 37 41 48 53 54 56
22 23 24 26 29 31 28 26 26 26 29 32 35 37 37 35 32 26 14 12 12 13 13 13 17 22 21 22 27 30 33 30 36 42 49 52 56 56
23 23 24 24 27 29 28 26 24 22 24 25 27 30 32 31 30 31 28 20 15 14 22 25 24 21 22 25 28 28 30 39 43 44 45 50 58 58
23 26 24 23 26 31 30 27 24 23 23 25 24 26 28 26 27 28 30 29 28 20 20 27 24 27 26 27 30 30 35 50 48 46 46 51 55 60
24 23 23 24 28 31 31 28 24 23 23 26 26 26 26 24 28 30 29 27 31 30 29 33 29 29 29 33 38 39 39 46 44 48 56 54 57 55
24 25 25 26 28 31 34 29 21 23 21 22 22 22 22 22 22 24 25 28 32 34 32 30 37 37 37 43 45 53 56 58 55 53 52 58 55 59
29 29 31 31 30 32 36 34 26 25 25 24 20 20 21 22 23 24 26 28 31 36 38 34 39 39 41 47 50 54 56 56 60 55 56 57 54 53
32 35 36 36 34 34 37 37 31 25 27 28 26 24 24 26 27 29 30 33 34 35 45 38 45 46 45 45 45 49 54 53 56 58 57 56 54 56
37 38 39 38 39 39 39 41 35 29 28 31 34 32 30 31 34 37 40 44 45 47 50 50 50 50 50 47 48 50 53 51 52 51 48 56 51 55
44 42 42 41 41 43 43 44 41 33 32 34 36 36 35 34 36 39 42 47 55 60 65 66 63 65 63 64 61 64 55 50 46 49 46 42 48 55
48 46 45 46 45 46 46 46 41 37 35 36 39 40 39 40 41 44 47 50 54 59 61 69 74 74 71 72 71 67 64 51 44 45 43 44 54 48
48 47 48 50 51 50 50 45 41 40 39 38 42 44 44 44 46 49 51 53 55 61 67 69 71 75 70 73 75 70 63 54 35 31 36 33 39 50
48 51 52 54 54 55 51 43 42 41 41 42 44 46 48 48 52 55 55 57 60 64 68 76 79 76 73 69 71 71 59 49 27 32 46 52 38 45
52 54 55 56 60 54 48 48 46 45 46 47 47 50 52 53 56 59 60 60 67 67 72 77 77 74 73 66 66 73 57 47 36 40 49 41 49 51
57 57 62 57 52 49 47 48 48 49 50 51 52 54 56 57 61 65 66 67 70 74 78 82 82 81 68 64 61 67 60 52 46 49 48 55 56 46
57 51 47 45 45 46 47 50 52 54 55 56 58 59 62 65 67 71 72 75 76 78 82 81 78 81 68 62 59 56 54 41 49 47 48 41 42 52
44 45 47 48 50 51 53 55 56 57 59 61 63 65 68 71 74 76 78 81 82 84 85 82 81 75 69 68 63 59 57 41 42 45 45 50 49 53
52 53 54 55 56 56 58 59 60 62 64 67 69 72 75 77 79 82 83 83 88 88 86 81 80 73 68 68 64 56 46 54 49 43 45 54 55 54
60 61 62 62 61 61 63 65 67 69 71 73 75 79 82 83 83 86 90 89 91 91 86 84 82 70 64 65 62 53 54 53 50 49 48 47 48 52

GFSNE_250_spd_048.txt.gz
Wind_Speed
18 20 21 22 23 27 27 25 29 30 34 34 30 28 26 27 28 22 15 9 7 9 12 15 17 24 18 17 15 15 17 19 20 26 30 34 33 35
17 18 20 20 21 22 27 25 25 27 30 32 32 23 22 22 23 25 27 24 18 12 9 8 11 13 11 16 18 18 21 21 27 31 31 35 40 39
16 17 19 19 19 20 22 26 25 24 28 30 32 25 23 20 18 17 19 19 19 21 20 16 14 13 11 13 18 23 28 29 29 33 35 36 40 41
13 17 18 18 18 19 19 22 24 23 24 26 29 27 22 26 24 20 20 18 17 18 17 16 14 14 16 17 20 21 26 29 31 33 36 38 43 45
14 17 19 19 18 19 18 19 22 24 22 24 26 28 22 22 21 23 19 19 17 13 14 14 13 15 17 18 20 22 26 31 34 39 43 47 47 49
18 19 20 19 19 20 18 18 19 22 23 20 22 24 24 22 18 19 19 21 20 20 20 20 20 19 18 19 23 28 32 33 34 36 42 45 47 47
21 21 22 21 21 21 17 19 20 20 22 21 18 18 20 19 18 19 15 17 19 20 19 20 18 20 22 25 23 23 30 35 38 41 45 48 49 48
25 25 24 24 23 21 20 21 21 21 20 21 21 20 18 20 21 18 18 15 15 18 19 20 25 25 28 28 30 32 37 40 45 52 57 53 51 48
29 29 28 27 26 25 24 23 24 24 23 23 22 23 22 20 20 18 16 17 14 15 27 26 27 31 33 36 38 42 46 47 50 54 57 58 53 45
33 33 31 31 30 29 29 27 28 28 27 28 26 26 25 25 24 23 25 27 26 25 23 33 33 35 37 38 40 45 50 56 59 60 61 60 55 39
37 37 36 35 33 32 33 32 32 32 32 34 33 32 32 31 29 31 28 29 32 32 31 31 33 35 40 38 43 48 52 56 64 68 68 67 61 50
40 41 40 39 38 36 36 37 38 36 36 38 37 36 35 37 36 35 35 34 33 35 33 32 36 37 36 46 43 47 52 56 59 68 73 70 65 56
43 44 43 43 42 41 40 41 42 41 41 40 41 41 40 42 43 37 35 35 36 36 36 34 37 40 41 42 51 54 59 61 62 66 69 73 71 59
49 48 48 48 46 45 44 44 46 45 46 45 44 42 43 46 42 38 39 42 45 45 44 41 41 43 43 46 51 58 63 67 69 70 72 71 71 60
51 53 55 53 47 47 47 46 48 48 48 49 46 43 45 44 42 48 49 46 46 44 44 44 46 47 49 52 54 60 62 65 68 71 70 68 64 56
49 49 51 53 50 48 48 48 49 50 50 46 44 44 48 47 52 53 50 50 49 48 48 50 52 53 53 58 61 64 66 68 68 70 68 63 61 48
43 42 43 46 46 46 49 51 51 50 46 44 45 48 49 52 53 47 46 46 48 50 53 55 56 59 60 62 64 68 68 72 74 71 70 62 57 41
48 48 46 46 47 48 50 50 47 46 47 47 50 53 54 53 46 43 44 46 48 50 51 54 57 61 65 68 70 72 77 78 75 73 70 56 48 42
53 54 53 53 51 47 46 46 48 49 50 52 54 55 50 45 45 45 48 50 51 53 54 57 59 61 63 67 71 74 76 76 73 72 64 57 47 44
56 55 55 54 53 50 49 48 51 53 55 54 50 45 45 47 49 52 54 56 57 57 59 60 63 66 68 71 73 75 77 69 68 71 61 56 52 49
56 56 55 53 52 52 53 54 55 52 48 46 46 47 50 53 54 55 55 56 57 59 62 65 67 69 73 75 74 73 76 77 75 72 64 56 49 47
57 58 59 59 59 57 53 49 47 48 49 50 52 53 55 56 57 58 59 60 63 65 66 68 71 73 75 77 73 74 78 78 72 67 65 56 49 46
53 53 52 52 51 51 52 52 52 53 55 57 59 60 60 61 62 64 66 67 67 69 72 74 73 74 76 76 78 77 78 77 72 69 65 65 62 55